Regional Weather Roundup
Issued by NWS

Home | Current Version | Previous Version | Graphics & Text | Print | Product List | Glossary Off
Versions: 1 2 3 4 5 6 7 8 9 10 11 12 13 14 15 16 17 18 19 20 21 22 23 24 25 26 27 28 29 30 31 32 33 34 35 36 37 38 39 40 41 42 43 44 45 46 47 48 49 50

000
ASUS43 KDMX 280901
RWRIA

WEATHER ROUNDUP FOR IOWA
NATIONAL WEATHER SERVICE DES MOINES IA
300 AM CST TUE FEB 28 2017

NOTE: "FAIR" INDICATES FEW OR NO CLOUDS BELOW 12,000 FEET WITH NO
SIGNIFICANT WEATHER AND/OR OBSTRUCTIONS TO VISIBILITY.

* - THESE STATIONS ARE NOT NWS STATIONS...THUS NOT UNDER NWS
QUALITY CONTROL.  THEY ALSO DO NOT REPORT WEATHER SUCH
AS PRECIPITATION OR FOG.

IAZ001>003-012>014-020>022-031>034-043>046-281000-
   NORTHWEST IOWA

CITY           SKY/WX    TMP DP  RH WIND       PRES   REMARKS
CARROLL *      CLOUDY    37  36  93 SE5       29.64F WCI  34
CHEROKEE *     CLOUDY    37  32  85 CALM      29.66R
DENISON *      CLOUDY    39  34  81 E5        29.61S
LE MARS *      CLOUDY    34  30  86 NE5       29.65F WCI  30
SHELDON *      CLOUDY    34  34 100 E9        29.63F WCI  26
SIOUX CITY     PTCLDY    36  29  75 E7        29.61F WCI  30
SPENCER        CLOUDY    34  30  85 E7        29.66F WCI  28
STORM LAKE *   CLOUDY    34  32  93 SE8       29.65S WCI  27
$$

IAZ055>058-069>071-079>083-090>094-281000-
   SOUTHWEST IOWA

CITY           SKY/WX    TMP DP  RH WIND       PRES   REMARKS
ATLANTIC *     CLOUDY    43  39  87 N3        29.63F
AUDUBON *      CLOUDY    37  34  87 CALM      29.64F
CLARINDA *     CLOUDY    55  50  82 S9        29.64F
COUNCIL BLFS * CLOUDY    48  45  87 SE7       29.60F
CRESTON *      CLOUDY    48  43  81 SE8       29.66F
HARLAN  *      CLOUDY    41  36  81 CALM      29.66S
LAMONI         CLOUDY    54  45  71 S9        29.66F
RED OAK *      CLOUDY    54  48  82 SE9       29.61F
SHENANDOAH *   CLOUDY    54  50  87 SE7G14    29.61F
$$

IAZ047>049-059>061-072>074-084-281000-
   CENTRAL IOWA

CITY           SKY/WX    TMP DP  RH WIND       PRES   REMARKS
AMES           CLOUDY    39  35  86 E3        29.68F
ANKENY *       MOCLDY    39  34  81 CALM      29.68F
BOONE *        CLOUDY    37  34  87 E6        29.66F WCI  33
CHARITON *     CLOUDY    50  45  81 SE9       29.69F
DES MOINES     CLOUDY    48  36  63 SE7       29.67F
GRINNELL*      PTCLDY    41  35  81 SE7       29.72F
KNOXVILLE *    CLOUDY    52  45  76 SE8       29.68F
MARSHALLTOWN   PTCLDY    36  34  92 E9        29.70F WCI  29
NEWTON *       CLOUDY    41  36  81 SE10      29.69F
PELLA *        MOCLDY    49  44  83 SE7       29.71F
PERRY *        CLOUDY    39  35  83 E9        29.65F WCI  33
$$

IAZ004>006-015-016-023>025-035-036-281000-
   NORTH CENTRAL IOWA

CITY           SKY/WX    TMP DP  RH WIND       PRES   REMARKS
ALGONA *       CLOUDY    39  34  81 SE12      29.68F WCI  32
CLARION *      CLOUDY    39  36  87 SE18      29.68F WCI  30
ESTHERVILLE    PTCLDY    32  31  96 E3        29.68F
FORT DODGE *   CLOUDY    37  30  75 E9        29.68F WCI  31
MASON CITY     CLOUDY    39  34  82 SE14      29.73F WCI  31
FOREST CITY *    N/A     37  32  81 SE13      29.71F WCI  29
WEBSTER CITY * CLOUDY    37  34  87 E10       29.66F WCI  30
IOWA FALLS *     N/A     39  35  87 E7        29.71F WCI  34
$$

IAZ007>011-017>019-026>030-037>042-050>054-066-281000-
   NORTHEAST IOWA

CITY           SKY/WX    TMP DP  RH WIND       PRES   REMARKS
CEDAR RAPIDS   MOCLDY    43  41  93 SE8       29.73F
CHARLES CITY * CLOUDY    39  39 100 E14       29.74F WCI  31
CLINTON *      CLOUDY    46  44  93 SE9       29.81F
DECORAH *      CLOUDY    41  37  87 E13       29.77F
DUBUQUE        CLOUDY    43  40  89 SE12      29.79F
MONTICELLO *   CLOUDY    43  41  93 SE8       29.77F
OELWEIN *      CLOUDY    41  39  93 E10       29.75F
WATERLOO       CLOUDY    39  35  86 E7        29.73F WCI  34
$$

IAZ064-065-067-068-078-281000-
   EAST CENTRAL IOWA

CITY           SKY/WX    TMP DP  RH WIND       PRES   REMARKS
DAVENPORT      CLOUDY    50  45  83 S15       29.80F
IOWA CITY      LGT RAIN  47  42  83 S22G28    29.76F
MUSCATINE *    CLOUDY    52  46  82 S10       29.80S
QUAD CITIES    CLOUDY    52  45  77 S15G21    29.80F
$$

IAZ062-063-075>077-085>089-095>099-281000-
   SOUTHEAST IOWA

CITY           SKY/WX    TMP DP  RH WIND       PRES   REMARKS
BURLINGTON     CLOUDY    52  47  83 S12       29.79F
FAIRFIELD *    CLOUDY    54  43  66 S5G21     29.76F
FORT MADISON * MOCLDY    52  46  82 S8        29.79F
KEOKUK *       MOCLDY    55  48  76 S15       29.78F
CENTERVILLE *  CLOUDY    50  46  87 CALM      29.73F
OTTUMWA        CLOUDY    49  47  93 SE3       29.74F
WASHINGTON *   HVY RAIN  50  46  87 W10G30    29.81R
$$

ABBREVIATIONS USED IN REMARKS
   TC - TEMPERATURES IN CELSIUS
  WCI - WIND CHILL INDEX
   HX - HEAT INDEX
  VSB - VISIBILITY
$$





USA.gov is the U.S. government's official web portal to all federal, state and local government web resources and services.